Orbital Elements at Epoch 2459200.5 (2020-Dec-17.0) TDB
Reference: JPL 17 (heliocentric ecliptic J2000)
Element | Value | Uncertainty (1-sigma) | Units |
e | .1761034687502738 | 4.0907e-08 | |
a | 2.53285535392282 | 1.1384e-08 | au |
q | 2.086810740254309 | 1.032e-07 | au |
i | 13.7601049189352 | 6.5951e-06 | deg |
node | 146.4940432605926 | 1.3501e-05 | deg |
peri | 302.1931916793627 | 2.3605e-05 | deg |
M | 205.4967894894357 | 1.8824e-05 | deg |
tp | 2459832.400963677222 (2022-Sep-09.90096368) | 7.8333e-05 | TDB |
period | 1472.359999329888 4.03 | 9.9264e-06 2.718e-08 | d yr |
n | .2445054199814216 | 1.6484e-09 | deg/d |
Q | 2.978899967591332 | 1.3389e-08 | au |
|
| | Orbit Determination Parameters
Additional Information
|